| time (UTC) | temp F | wind direction | speed MPH | gust MPH | rain 1hr in | rain 24hr in | rain mn in | humidity % | barometer mb |
| 20260903035438 | 67 | 306 | 0.0 | 0.0 | 0.00 | 0.00 | 0.00 | 69 | |
| 20260903034941 | 68 | 306 | 0.0 | 0.0 | 0.00 | 0.00 | 0.00 | 68 | |
| 20260903034429 | 68 | 306 | 0.0 | 0.0 | 0.00 | 0.00 | 0.00 | 67 | |
| 20260903033930 | 68 | 306 | 0.0 | 0.0 | 0.00 | 0.00 | 0.00 | 66 | |
| 20260903033414 | 69 | 306 | 0.0 | 0.0 | 0.00 | 0.00 | 0.00 | 65 | |
| 20260903032259 | 70 | 306 | 0.0 | 0.0 | 0.00 | 0.00 | 0.00 | 63 | |
| 20260903031136 | 71 | 306 | 0.0 | 0.0 | 0.00 | 0.00 | 0.00 | 61 | |
| 20260903030623 | 71 | 306 | 0.0 | 0.0 | 0.00 | 0.00 | 0.00 | 61 | |
| 20260903030114 | 72 | 306 | 0.0 | 0.0 | 0.00 | 0.00 | 0.00 | 60 | |
| 20260903025610 | 72 | 306 | 0.0 | 0.0 | 0.00 | 0.00 | 0.00 | 59 | |
| 20260903025110 | 72 | 306 | 0.0 | 0.0 | 0.00 | 0.00 | 0.00 | 58 | |
| 20260903024551 | 73 | 306 | 0.0 | 0.0 | 0.00 | 0.00 | 0.00 | 57 | |
| 20260903024051 | 73 | 306 | 0.0 | 0.0 | 0.00 | 0.00 | 0.00 | 57 | |
| 20260903023545 | 74 | 306 | 0.0 | 0.0 | 0.00 | 0.00 | 0.00 | 56 | |
| 20260903022430 | 75 | 306 | 0.0 | 0.0 | 0.00 | 0.00 | 0.00 | 54 | |
| 20260903021925 | 75 | 306 | 0.0 | 0.0 | 0.00 | 0.00 | 0.00 | 54 | |
| 20260903021417 | 76 | 306 | 0.0 | 0.0 | 0.00 | 0.00 | 0.00 | 54 | |
| 20260903020258 | 77 | 306 | 0.0 | 0.0 | 0.00 | 0.00 | 0.00 | 52 | |
| 20260903015122 | 77 | 306 | 0.0 | 0.0 | 0.00 | 0.00 | 0.00 | 50 | |
| 20260903014630 | 78 | 306 | 0.0 | 0.0 | 0.00 | 0.00 | 0.00 | 49 | |
| 20260903014115 | 78 | 306 | 0.0 | 0.0 | 0.00 | 0.00 | 0.00 | 47 | |
| 20260903012958 | 79 | 306 | 0.0 | 1.0 | 0.00 | 0.00 | 0.00 | 45 | |
| 20260903012446 | 79 | 306 | 0.0 | 3.0 | 0.00 | 0.00 | 0.00 | 44 | |
| 20260903011954 | 79 | 306 | 0.0 | 3.0 | 0.00 | 0.00 | 0.00 | 43 | |
| 20260903011502 | 80 | 306 | 0.0 | 2.0 | 0.00 | 0.00 | 0.00 | 42 | |
| 20260903011006 | 80 | 306 | 0.0 | 0.0 | 0.00 | 0.00 | 0.00 | 42 | |
| 20260903010454 | 80 | 306 | 0.0 | 3.0 | 0.00 | 0.00 | 0.00 | 42 | |
| 20260903005955 | 80 | 45 | 0.0 | 0.0 | 0.00 | 0.00 | 0.00 | 42 | |
| 20260903004147 | 81 | 299 | 1.0 | 6.0 | 0.00 | 0.00 | 0.00 | 42 | |
| 20260903003629 | 82 | 299 | 1.0 | 6.0 | 0.00 | 0.00 | 0.00 | 42 | |
| 20260903003116 | 82 | 302 | 0.0 | 5.0 | 0.00 | 0.00 | 0.00 | 41 | |
| 20260903002613 | 82 | 303 | 0.0 | 5.0 | 0.00 | 0.00 | 0.00 | 40 | |
| 20260903002123 | 82 | 27 | 0.0 | 1.0 | 0.00 | 0.00 | 0.00 | 40 | |
| 20260903001610 | 82 | 32 | 1.0 | 4.0 | 0.00 | 0.00 | 0.00 | 39 | |
| 20260903000439 | 83 | 313 | 1.0 | 6.0 | 0.00 | 0.00 | 0.00 | 38 | |
| 20260902235940 | 83 | 301 | 1.0 | 6.0 | 0.00 | 0.00 | 0.00 | 38 | |
| 20260902234803 | 85 | 68 | 2.0 | 6.0 | 0.00 | 0.00 | 0.00 | 35 | |
| 20260902234245 | 86 | 304 | 2.0 | 6.0 | 0.00 | 0.00 | 0.00 | 36 | |
| 20260902233738 | 86 | 324 | 1.0 | 5.0 | 0.00 | 0.00 | 0.00 | 36 | |
| 20260902233246 | 87 | 303 | 0.0 | 4.0 | 0.00 | 0.00 | 0.00 | 36 | |
| 20260902232754 | 87 | 24 | 0.0 | 2.0 | 0.00 | 0.00 | 0.00 | 36 | |
| 20260902232306 | 87 | 25 | 0.0 | 5.0 | 0.00 | 0.00 | 0.00 | 36 | |
| 20260902231749 | 87 | 87 | 1.0 | 5.0 | 0.00 | 0.00 | 0.00 | 36 | |
| 20260902231250 | 87 | 309 | 1.0 | 9.0 | 0.00 | 0.00 | 0.00 | 37 | |
| 20260902230749 | 87 | 292 | 1.0 | 9.0 | 0.00 | 0.00 | 0.00 | 36 | |
| 20260902230235 | 87 | 120 | 2.0 | 9.0 | 0.00 | 0.00 | 0.00 | 36 | |
| 20260902225729 | 87 | 290 | 4.0 | 9.0 | 0.00 | 0.00 | 0.00 | 36 | |
| 20260902225228 | 88 | 270 | 3.0 | 7.0 | 0.00 | 0.00 | 0.00 | 32 | |
| 20260902224720 | 89 | 291 | 1.0 | 6.0 | 0.00 | 0.00 | 0.00 | 32 | |
| 20260902224215 | 89 | 284 | 0.0 | 4.0 | 0.00 | 0.00 | 0.00 | 34 | |
| 20260902223724 | 88 | 167 | 0.0 | 4.0 | 0.00 | 0.00 | 0.00 | 34 | |
| 20260902223232 | 88 | 19 | 1.0 | 6.0 | 0.00 | 0.00 | 0.00 | 36 | |
| 20260902222722 | 88 | 296 | 2.0 | 6.0 | 0.00 | 0.00 | 0.00 | 36 | |
| 20260902222228 | 88 | 305 | 1.0 | 6.0 | 0.00 | 0.00 | 0.00 | 37 | |
| 20260902221717 | 88 | 275 | 1.0 | 5.0 | 0.00 | 0.00 | 0.00 | 38 | |
| 20260902221204 | 89 | 288 | 1.0 | 6.0 | 0.00 | 0.00 | 0.00 | 37 | |
| 20260902220704 | 89 | 292 | 1.0 | 6.0 | 0.00 | 0.00 | 0.00 | 39 | |
| 20260902220206 | 89 | 292 | 1.0 | 7.0 | 0.00 | 0.00 | 0.00 | 37 | |
| 20260902215709 | 89 | 296 | 1.0 | 7.0 | 0.00 | 0.00 | 0.00 | 37 | |
| 20260902215206 | 89 | 292 | 2.0 | 7.0 | 0.00 | 0.00 | 0.00 | 38 | |
| 20260902214046 | 90 | 317 | 0.0 | 4.0 | 0.00 | 0.00 | 0.00 | 35 | |
| 20260902213537 | 90 | 259 | 0.0 | 4.0 | 0.00 | 0.00 | 0.00 | 35 | |
| 20260902213033 | 90 | 159 | 0.0 | 4.0 | 0.00 | 0.00 | 0.00 | 34 | |
| 20260902212529 | 90 | 164 | 0.0 | 3.0 | 0.00 | 0.00 | 0.00 | 35 | |
| 20260902212021 | 89 | 164 | 0.0 | 3.0 | 0.00 | 0.00 | 0.00 | 35 | |
| 20260902211514 | 90 | 128 | 0.0 | 3.0 | 0.00 | 0.00 | 0.00 | 35 | |
| 20260902210342 | 89 | 146 | 0.0 | 0.0 | 0.00 | 0.00 | 0.00 | 34 | |
| 20260902205836 | 89 | 122 | 0.0 | 3.0 | 0.00 | 0.00 | 0.00 | 34 | |
| 20260902205320 | 89 | 132 | 0.0 | 3.0 | 0.00 | 0.00 | 0.00 | 33 | |
| 20260902204822 | 89 | 312 | 0.0 | 5.0 | 0.00 | 0.00 | 0.00 | 32 | |
| 20260902204320 | 89 | 319 | 0.0 | 5.0 | 0.00 | 0.00 | 0.00 | 32 | |
| 20260902203801 | 89 | 87 | 0.0 | 5.0 | 0.00 | 0.00 | 0.00 | 33 | |
| 20260902202625 | 89 | 126 | 0.0 | 4.0 | 0.00 | 0.00 | 0.00 | 32 | |
| 20260902202118 | 89 | 127 | 0.0 | 4.0 | 0.00 | 0.00 | 0.00 | 32 | |
| 20260902201611 | 89 | 67 | 0.0 | 4.0 | 0.00 | 0.00 | 0.00 | 31 | |
| 20260902201117 | 89 | 98 | 0.0 | 4.0 | 0.00 | 0.00 | 0.00 | 31 | |
| 20260902200616 | 88 | 72 | 0.0 | 4.0 | 0.00 | 0.00 | 0.00 | 32 | |
| 20260902200059 | 88 | 92 | 0.0 | 4.0 | 0.00 | 0.00 | 0.00 | 33 | |
| 20260902195544 | 88 | 115 | 0.0 | 2.0 | 0.00 | 0.00 | 0.00 | 34 | |
| 20260902195030 | 87 | 113 | 0.0 | 3.0 | 0.00 | 0.00 | 0.00 | 34 | |
| 20260902194523 | 87 | 90 | 0.0 | 3.0 | 0.00 | 0.00 | 0.00 | 35 | |
| 20260902193356 | 86 | 5 | 0.0 | 5.0 | 0.00 | 0.00 | 0.00 | 38 | |
| 20260902192856 | 85 | 323 | 1.0 | 5.0 | 0.00 | 0.00 | 0.00 | 40 | |
| 20260902192401 | 85 | 306 | 1.0 | 5.0 | 0.00 | 0.00 | 0.00 | 41 | |
| 20260902191858 | 85 | 300 | 0.0 | 3.0 | 0.00 | 0.00 | 0.00 | 43 | |
| 20260902191356 | 85 | 161 | 1.0 | 5.0 | 0.00 | 0.00 | 0.00 | 44 | |
| 20260902190851 | 85 | 51 | 1.0 | 5.0 | 0.00 | 0.00 | 0.00 | 44 | |
| 20260902190354 | 85 | 300 | 1.0 | 5.0 | 0.00 | 0.00 | 0.00 | 44 | |
| 20260902185844 | 85 | 300 | 1.0 | 5.0 | 0.00 | 0.00 | 0.00 | 44 | |
| 20260902185336 | 84 | 299 | 2.0 | 7.0 | 0.00 | 0.00 | 0.00 | 44 | |
| 20260902184201 | 84 | 301 | 2.0 | 7.0 | 0.00 | 0.00 | 0.00 | 44 | |
| 20260902183650 | 84 | 302 | 2.0 | 7.0 | 0.00 | 0.00 | 0.00 | 43 | |
| 20260902183137 | 84 | 302 | 1.0 | 5.0 | 0.00 | 0.00 | 0.00 | 43 | |
| 20260902182631 | 84 | 309 | 1.0 | 5.0 | 0.00 | 0.00 | 0.00 | 43 | |
| 20260902182119 | 84 | 309 | 1.0 | 5.0 | 0.00 | 0.00 | 0.00 | 43 | |
| 20260902180954 | 83 | 309 | 0.0 | 5.0 | 0.00 | 0.00 | 0.00 | 44 | |
| 20260902180455 | 82 | 309 | 1.0 | 5.0 | 0.00 | 0.00 | 0.00 | 46 | |
| 20260902175952 | 82 | 309 | 1.0 | 5.0 | 0.00 | 0.00 | 0.00 | 44 | |
| 20260902173610 | 80 | 263 | 0.0 | 3.0 | 0.00 | 0.00 | 0.00 | 44 | |
| 20260902172453 | 78 | 279 | 0.0 | 1.0 | 0.00 | 0.00 | 0.00 | 46 | |
| 20260902172218 | 78 | 279 | 0.0 | 2.0 | 0.00 | 0.00 | 0.00 | 46 | |
| 20260902171715 | 77 | 180 | 0.0 | 1.0 | 0.00 | 0.00 | 0.00 | 49 | |
| 20260902171204 | 76 | 157 | 0.0 | 0.0 | 0.00 | 0.00 | 0.00 | 49 | |
| 20260902170649 | 75 | 157 | 0.0 | 0.0 | 0.00 | 0.00 | 0.00 | 51 | |
| 20260902170139 | 74 | 157 | 0.0 | 0.0 | 0.00 | 0.00 | 0.00 | 52 | |
| 20260902165019 | 72 | 227 | 0.0 | 1.0 | 0.00 | 0.00 | 0.00 | 56 | |
| 20260902164512 | 70 | 228 | 0.0 | 0.0 | 0.00 | 0.00 | 0.00 | 58 | |
| 20260902164016 | 69 | 229 | 0.0 | 0.0 | 0.00 | 0.00 | 0.00 | 58 | |
| 20260902162900 | 66 | 234 | 0.0 | 0.0 | 0.00 | 0.00 | 0.00 | 61 | |
| 20260902162350 | 64 | 234 | 0.0 | 0.0 | 0.00 | 0.00 | 0.00 | 65 | |
| 20260902161832 | 63 | 234 | 0.0 | 0.0 | 0.00 | 0.00 | 0.00 | 73 | |
| 20260902161319 | 61 | 234 | 0.0 | 0.0 | 0.00 | 0.00 | 0.00 | 76 | |
| 20260902160814 | 59 | 234 | 0.0 | 0.0 | 0.00 | 0.00 | 0.00 | 83 | |
| 20260902160254 | 58 | 234 | 0.0 | 0.0 | 0.00 | 0.00 | 0.00 | 90 | |
| 20260902155748 | 56 | 234 | 0.0 | 0.0 | 0.00 | 0.00 | 0.00 | 93 | |
| 20260902155235 | 55 | 234 | 0.0 | 0.0 | 0.00 | 0.00 | 0.00 | 93 | |
| 20260902154738 | 54 | 234 | 0.0 | 0.0 | 0.00 | 0.00 | 0.00 | 93 | |
| 20260902154247 | 53 | 234 | 0.0 | 0.0 | 0.00 | 0.00 | 0.00 | 92 | |
| 20260902153748 | 53 | 234 | 0.0 | 0.0 | 0.00 | 0.00 | 0.00 | 92 | |
| 20260902153243 | 52 | 234 | 0.0 | 0.0 | 0.00 | 0.00 | 0.00 | 92 | |
| 20260902152730 | 51 | 296 | 0.0 | 0.0 | 0.00 | 0.00 | 0.00 | 92 | |
| 20260902152219 | 51 | 296 | 0.0 | 0.0 | 0.00 | 0.00 | 0.00 | 92 | |
| 20260902151053 | 50 | 296 | 0.0 | 0.0 | 0.00 | 0.00 | 0.00 | 91 | |
| 20260902145922 | 49 | 296 | 0.0 | 0.0 | 0.00 | 0.00 | 0.00 | 90 | |
| 20260902145424 | 49 | 296 | 0.0 | 0.0 | 0.00 | 0.00 | 0.00 | 90 | |
| 20260902144909 | 49 | 296 | 0.0 | 0.0 | 0.00 | 0.00 | 0.00 | 90 | |
| 20260902144407 | 49 | 296 | 0.0 | 0.0 | 0.00 | 0.00 | 0.00 | 89 | |
| 20260902143856 | 48 | 296 | 0.0 | 0.0 | 0.00 | 0.00 | 0.00 | 89 | |
| 20260902143345 | 48 | 296 | 0.0 | 0.0 | 0.00 | 0.00 | 0.00 | 89 | |
| 20260902142826 | 48 | 296 | 0.0 | 0.0 | 0.00 | 0.00 | 0.00 | 88 | |
| 20260902141714 | 48 | 296 | 0.0 | 0.0 | 0.00 | 0.00 | 0.00 | 88 | |
| 20260902141217 | 48 | 296 | 0.0 | 0.0 | 0.00 | 0.00 | 0.00 | 88 | |
| 20260902140722 | 48 | 296 | 0.0 | 0.0 | 0.00 | 0.00 | 0.00 | 88 | |
| 20260902140213 | 48 | 296 | 0.0 | 0.0 | 0.00 | 0.00 | 0.00 | 88 | |
| 20260902135029 | 49 | 296 | 0.0 | 0.0 | 0.00 | 0.00 | 0.00 | 87 | |
| 20260902134527 | 49 | 296 | 0.0 | 0.0 | 0.00 | 0.00 | 0.00 | 87 | |
| 20260902134019 | 49 | 296 | 0.0 | 0.0 | 0.00 | 0.00 | 0.00 | 87 | |
| 20260902133516 | 49 | 296 | 0.0 | 0.0 | 0.00 | 0.00 | 0.00 | 87 | |
| 20260902133015 | 49 | 296 | 0.0 | 0.0 | 0.00 | 0.00 | 0.00 | 87 | |
| 20260902131237 | 50 | 296 | 0.0 | 0.0 | 0.00 | 0.00 | 0.00 | 87 | |
| 20260902130728 | 50 | 296 | 0.0 | 0.0 | 0.00 | 0.00 | 0.00 | 87 | |
| 20260902130212 | 50 | 296 | 0.0 | 0.0 | 0.00 | 0.00 | 0.00 | 87 | |
| 20260902125713 | 50 | 296 | 0.0 | 0.0 | 0.00 | 0.00 | 0.00 | 87 | |
| 20260902125209 | 50 | 296 | 0.0 | 0.0 | 0.00 | 0.00 | 0.00 | 87 | |
| 20260902124711 | 50 | 296 | 0.0 | 0.0 | 0.00 | 0.00 | 0.00 | 87 | |
| 20260902124152 | 50 | 296 | 0.0 | 0.0 | 0.00 | 0.00 | 0.00 | 87 | |
| 20260902123646 | 50 | 296 | 0.0 | 0.0 | 0.00 | 0.00 | 0.00 | 87 | |
| 20260902123139 | 51 | 296 | 0.0 | 0.0 | 0.00 | 0.00 | 0.00 | 87 | |
| 20260902122627 | 51 | 296 | 0.0 | 0.0 | 0.00 | 0.00 | 0.00 | 87 | |
| 20260902120828 | 51 | 296 | 0.0 | 0.0 | 0.00 | 0.00 | 0.00 | 88 | |
| 20260902120309 | 51 | 296 | 0.0 | 0.0 | 0.00 | 0.00 | 0.00 | 88 | |
| 20260902115800 | 51 | 296 | 0.0 | 0.0 | 0.00 | 0.00 | 0.00 | 88 | |
| 20260902115249 | 51 | 296 | 0.0 | 0.0 | 0.00 | 0.00 | 0.00 | 87 | |
| 20260902114748 | 51 | 296 | 0.0 | 1.0 | 0.00 | 0.00 | 0.00 | 87 | |
| 20260902114246 | 51 | 296 | 0.0 | 0.0 | 0.00 | 0.00 | 0.00 | 86 | |
| 20260902113727 | 51 | 296 | 0.0 | 0.0 | 0.00 | 0.00 | 0.00 | 86 | |
| 20260902113213 | 51 | 296 | 0.0 | 0.0 | 0.00 | 0.00 | 0.00 | 86 | |
| 20260902112704 | 52 | 296 | 0.0 | 0.0 | 0.00 | 0.00 | 0.00 | 86 | |
| 20260902112206 | 52 | 296 | 0.0 | 0.0 | 0.00 | 0.00 | 0.00 | 86 | |
| 20260902111707 | 52 | 296 | 0.0 | 0.0 | 0.00 | 0.00 | 0.00 | 86 | |
| 20260902110545 | 52 | 296 | 0.0 | 0.0 | 0.00 | 0.00 | 0.00 | 85 | |
| 20260902110049 | 52 | 296 | 0.0 | 0.0 | 0.00 | 0.00 | 0.00 | 85 | |
| 20260902105541 | 52 | 296 | 0.0 | 0.0 | 0.00 | 0.00 | 0.00 | 85 | |
| 20260902105037 | 52 | 296 | 0.0 | 0.0 | 0.00 | 0.00 | 0.00 | 84 | |
| 20260902104543 | 52 | 296 | 0.0 | 0.0 | 0.00 | 0.00 | 0.00 | 84 | |
| 20260902104048 | 53 | 296 | 0.0 | 0.0 | 0.00 | 0.00 | 0.00 | 85 | |
| 20260902102939 | 53 | 296 | 0.0 | 0.0 | 0.00 | 0.00 | 0.00 | 85 | |
| 20260902102425 | 53 | 296 | 0.0 | 0.0 | 0.00 | 0.00 | 0.00 | 85 | |
| 20260902101928 | 53 | 296 | 0.0 | 0.0 | 0.00 | 0.00 | 0.00 | 85 | |
| 20260902101411 | 53 | 296 | 0.0 | 0.0 | 0.00 | 0.00 | 0.00 | 85 | |
| 20260902100859 | 53 | 296 | 0.0 | 0.0 | 0.00 | 0.00 | 0.00 | 85 | |
| 20260902100406 | 54 | 296 | 0.0 | 0.0 | 0.00 | 0.00 | 0.00 | 85 | |
| 20260902095909 | 54 | 296 | 0.0 | 0.0 | 0.00 | 0.00 | 0.00 | 85 | |
| 20260902095414 | 54 | 296 | 0.0 | 0.0 | 0.00 | 0.00 | 0.00 | 85 | |
| 20260902094857 | 54 | 296 | 0.0 | 0.0 | 0.00 | 0.00 | 0.00 | 85 | |
| 20260902094347 | 54 | 296 | 0.0 | 0.0 | 0.00 | 0.00 | 0.00 | 85 | |
| 20260902093855 | 54 | 296 | 0.0 | 0.0 | 0.00 | 0.00 | 0.00 | 84 | |
| 20260902093343 | 54 | 296 | 0.0 | 0.0 | 0.00 | 0.00 | 0.00 | 84 | |
| 20260902092844 | 54 | 296 | 0.0 | 0.0 | 0.00 | 0.00 | 0.00 | 84 | |
| 20260902092329 | 54 | 296 | 0.0 | 0.0 | 0.00 | 0.00 | 0.00 | 84 | |
| 20260902091148 | 55 | 296 | 0.0 | 0.0 | 0.00 | 0.00 | 0.00 | 84 | |
| 20260902085511 | 55 | 296 | 0.0 | 0.0 | 0.00 | 0.00 | 0.00 | 83 | |
| 20260902085010 | 55 | 296 | 0.0 | 0.0 | 0.00 | 0.00 | 0.00 | 83 | |
| 20260902083829 | 55 | 296 | 0.0 | 0.0 | 0.00 | 0.00 | 0.00 | 83 | |
| 20260902083309 | 55 | 296 | 0.0 | 0.0 | 0.00 | 0.00 | 0.00 | 83 | |
| 20260902081540 | 56 | 296 | 0.0 | 0.0 | 0.00 | 0.00 | 0.00 | 81 | |
| 20260902081039 | 56 | 296 | 0.0 | 0.0 | 0.00 | 0.00 | 0.00 | 81 | |
| 20260902080547 | 56 | 296 | 0.0 | 0.0 | 0.00 | 0.00 | 0.00 | 81 | |
| 20260902080045 | 56 | 296 | 0.0 | 0.0 | 0.00 | 0.00 | 0.00 | 81 | |
| 20260902075547 | 57 | 296 | 0.0 | 0.0 | 0.00 | 0.00 | 0.00 | 81 | |
| 20260902075028 | 57 | 296 | 0.0 | 0.0 | 0.00 | 0.00 | 0.00 | 81 | |
| 20260902074534 | 57 | 296 | 0.0 | 0.0 | 0.00 | 0.00 | 0.00 | 81 | |
| 20260902074035 | 57 | 296 | 0.0 | 0.0 | 0.00 | 0.00 | 0.00 | 81 | |
| 20260902073531 | 57 | 296 | 0.0 | 0.0 | 0.00 | 0.00 | 0.00 | 81 | |
| 20260902072359 | 57 | 296 | 0.0 | 0.0 | 0.00 | 0.00 | 0.00 | 81 | |
| 20260902071216 | 58 | 296 | 0.0 | 0.0 | 0.00 | 0.00 | 0.00 | 81 | |
| 20260902070715 | 58 | 296 | 0.0 | 0.0 | 0.00 | 0.00 | 0.00 | 81 | |
| 20260902070208 | 58 | 296 | 0.0 | 0.0 | 0.00 | 0.00 | 0.00 | 81 | |
| 20260902065650 | 58 | 296 | 0.0 | 0.0 | 0.00 | 0.00 | 0.00 | 81 | |
| 20260902063856 | 58 | 296 | 0.0 | 0.0 | 0.00 | 0.00 | 0.00 | 79 | |
| 20260902063347 | 59 | 296 | 0.0 | 0.0 | 0.00 | 0.00 | 0.00 | 78 | |
| 20260902062218 | 59 | 296 | 0.0 | 0.0 | 0.00 | 0.00 | 0.00 | 78 | |
| 20260902061705 | 59 | 296 | 0.0 | 0.0 | 0.00 | 0.00 | 0.00 | 77 | |
| 20260902061153 | 60 | 296 | 0.0 | 0.0 | 0.00 | 0.00 | 0.00 | 77 | |
| 20260902060659 | 60 | 296 | 0.0 | 0.0 | 0.00 | 0.00 | 0.00 | 77 | |
| 20260902055531 | 60 | 296 | 0.0 | 0.0 | 0.00 | 0.00 | 0.00 | 77 | |
| 20260902055031 | 60 | 296 | 0.0 | 0.0 | 0.00 | 0.00 | 0.00 | 76 | |
| 20260902054514 | 61 | 296 | 0.0 | 0.0 | 0.00 | 0.00 | 0.00 | 76 | |
| 20260902054007 | 61 | 296 | 0.0 | 0.0 | 0.00 | 0.00 | 0.00 | 76 | |
| 20260902053504 | 61 | 296 | 0.0 | 1.0 | 0.00 | 0.00 | 0.00 | 75 | |
| 20260902053005 | 61 | 296 | 0.0 | 0.0 | 0.00 | 0.00 | 0.00 | 75 | |
| 20260902051836 | 62 | 296 | 0.0 | 0.0 | 0.00 | 0.00 | 0.00 | 75 | |
| 20260902051319 | 62 | 296 | 0.0 | 0.0 | 0.00 | 0.00 | 0.00 | 74 | |
| 20260902050816 | 62 | 296 | 0.0 | 0.0 | 0.00 | 0.00 | 0.00 | 73 | |
| 20260902050258 | 63 | 296 | 0.0 | 0.0 | 0.00 | 0.00 | 0.00 | 73 | |
| 20260902045803 | 63 | 296 | 0.0 | 0.0 | 0.00 | 0.00 | 0.00 | 73 | |
| 20260902045251 | 63 | 296 | 0.0 | 0.0 | 0.00 | 0.00 | 0.00 | 73 | |
| 20260902044800 | 64 | 296 | 0.0 | 0.0 | 0.00 | 0.00 | 0.00 | 72 | |
| 20260902044244 | 64 | 296 | 0.0 | 0.0 | 0.00 | 0.00 | 0.00 | 72 | |
| 20260902043735 | 64 | 296 | 0.0 | 0.0 | 0.00 | 0.00 | 0.00 | 72 | |
| 20260902043237 | 65 | 296 | 0.0 | 0.0 | 0.00 | 0.00 | 0.00 | 72 | |
| 20260902042741 | 65 | 296 | 0.0 | 0.0 | 0.00 | 0.00 | 0.00 | 72 | |
| 20260902042235 | 65 | 296 | 0.0 | 0.0 | 0.00 | 0.00 | 0.00 | 71 |